FW7501 Weather Reports


time (UTC)temp
F
wind
direction
speed
knots
gust
knots
rain 1hr
in
rain 24hr
in
rain mn
in
humidity
%
barometer
mb
20260906062005 57 122 2.6 4.3 0.00 0.00 0.00 66 1021.7
20260906061511 57 139 1.7 6.1 0.00 0.00 0.00 65 1021.7
20260906061005 57 162 2.6 6.1 0.00 0.00 0.00 66 1021.7
20260906060503 57 189 2.6 4.3 0.00 0.00 0.00 67 1021.9
20260906060016 57 223 2.6 4.3 0.00 0.00 0.00 65 1021.9
20260906055504 57 175 0.9 4.3 0.00 0.00 0.00 66 1022.0
20260906055004 57 168 1.7 4.3 0.00 0.00 0.00 67 1021.8
20260906054503 57 232 0.0 1.7 0.00 0.00 0.00 66 1021.8
20260906054003 57 232 0.0 2.6 0.00 0.00 0.00 65 1021.8
20260906053505 57 233 0.9 3.5 0.00 0.00 0.00 67 1021.8
20260906053005 57 197 1.7 5.2 0.00 0.00 0.00 67 1021.8
20260906052503 57 203 1.7 6.1 0.00 0.00 0.00 64 1021.9
20260906052007 57 160 4.3 7.0 0.00 0.00 0.00 65 1021.8
20260906051504 58 213 2.6 7.0 0.00 0.00 0.00 65 1021.8
20260906051013 57 228 1.7 7.0 0.00 0.00 0.00 65 1021.7
20260906050509 57 203 2.6 8.7 0.00 0.00 0.00 66 1021.6
20260906050006 57 237 3.5 8.7 0.00 0.00 0.00 68 1021.7
20260906045512 57 244 3.5 8.7 0.00 0.00 0.00 67 1021.7
20260906045004 57 225 2.6 6.1 0.00 0.00 0.00 67 1021.7
20260906044504 56 230 0.9 7.8 0.00 0.00 0.00 66 1021.6
20260906044006 56 261 3.5 7.8 0.00 0.00 0.00 65 1021.5
20260906043503 57 251 4.3 7.0 0.00 0.00 0.00 65 1021.4
20260906043013 57 229 3.5 6.1 0.00 0.00 0.00 64 1021.5
20260906042504 58 301 2.6 5.2 0.00 0.00 0.00 65 1021.5
20260906042004 58 306 1.7 5.2 0.00 0.00 0.00 67 1021.6
20260906041504 57 314 2.6 4.3 0.00 0.00 0.00 66 1021.6
20260906041003 56 252 1.7 4.3 0.00 0.00 0.00 67 1021.5
20260906040503 56 210 1.7 4.3 0.00 0.00 0.00 65 1021.4
20260906040023 56 239 1.7 4.3 0.00 0.00 0.00 67 1021.4
20260906035504 56 242 0.9 6.1 0.00 0.00 0.00 67 1021.4
20260906035010 56 216 0.9 7.8 0.00 0.00 0.00 70 1021.5
20260906034520 56 206 4.3 8.7 0.00 0.00 0.00 70 1021.4
20260906034014 55 194 3.5 9.6 0.00 0.00 0.00 72 1021.4
20260906033512 56 239 5.2 9.6 0.00 0.00 0.00 71 1021.5
20260906033018 56 251 5.2 9.6 0.00 0.00 0.00 67 1021.5
20260906032515 56 126 1.7 8.7 0.00 0.00 0.00 66 1021.5
20260906032004 56 263 3.5 8.7 0.00 0.00 0.00 66 1021.6
20260906031509 57 244 4.3 8.7 0.00 0.00 0.00 71 1021.6
20260906031003 56 283 3.5 7.0 0.00 0.00 0.00 73 1021.6
20260906030509 55 226 0.0 7.8 0.00 0.00 0.00 71 1021.6
20260906030005 55 233 2.6 8.7 0.00 0.00 0.00 73 1021.6
20260906025512 55 212 4.3 9.6 0.00 0.00 0.00 74 1021.6
20260906025009 55 221 6.1 9.6 0.00 0.00 0.00 71 1021.6
20260906024509 56 191 4.3 9.6 0.00 0.00 0.00 68 1021.6
20260906024014 56 219 5.2 8.7 0.00 0.00 0.00 70 1021.7
20260906023505 55 244 2.6 7.8 0.00 0.00 0.00 68 1021.8
20260906023023 55 261 5.2 7.8 0.00 0.00 0.00 69 1021.9
20260906022507 55 235 3.5 8.7 0.00 0.00 0.00 71 1021.9
20260906022004 55 226 4.3 8.7 0.00 0.00 0.00 70 1021.9
20260906021522 55 232 4.3 10.4 0.00 0.00 0.00 71 1021.9
20260906021007 55 260 6.1 10.4 0.00 0.00 0.00 69 1022.0
20260906020719 55 247 4.3 9.6 0.00 0.00 0.00 71 1022.1
20260906015519 55 258 4.3 9.6 0.00 0.00 0.00 71 1022.1
20260906015006 55 256 4.3 8.7 0.00 0.00 0.00 70 1022.1
20260906014511 55 211 4.3 7.8 0.00 0.00 0.00 69 1022.1
20260906014010 55 168 0.9 10.4 0.00 0.00 0.00 70 1022.1
20260906013510 55 214 7.0 10.4 0.00 0.00 0.00 70 1022.2
20260906013009 55 171 2.6 8.7 0.00 0.00 0.00 71 1022.2
20260906012515 54 214 4.3 9.6 0.00 0.00 0.00 69 1022.3
20260906012012 54 200 5.2 9.6 0.00 0.00 0.00 73 1022.2
20260906011621 54 244 4.3 8.7 0.00 0.00 0.00 75 1022.2
20260906011605 54 237 4.3 10.4 0.00 0.00 0.00 76 1022.1
20260906005514 53 212 5.2 10.4 0.00 0.00 0.00 79 1022.3
20260906005008 53 248 4.3 10.4 0.00 0.00 0.00 79 1022.3
20260906004505 53 224 5.2 10.4 0.00 0.00 0.00 79 1022.2
20260906004009 53 231 5.2 12.2 0.00 0.00 0.00 81 1022.3
20260906003507 53 208 5.2 12.2 0.00 0.00 0.00 81 1022.1
20260906003013 52 231 4.3 9.6 0.00 0.00 0.00 82 1022.1
20260906002509 52 241 5.2 12.2 0.00 0.00 0.00 82 1022.1
20260906002008 52 217 6.1 12.2 0.00 0.01 0.00 82 1022.0
20260906001524 52 234 6.1 10.4 0.00 0.01 0.00 82 1022.0
20260906001007 52 221 6.1 10.4 0.00 0.01 0.00 83 1021.9
20260906000514 51 237 6.1 10.4 0.00 0.01 0.00 82 1021.8
20260906000018 51 218 7.0 10.4 0.00 0.01 0.00 84 1021.8
20260905235516 51 210 7.0 10.4 0.00 0.01 0.00 84 1021.8
20260905235016 51 220 6.1 10.4 0.00 0.01 0.00 85 1021.8
20260905234518 51 237 6.1 10.4 0.00 0.01 0.00 86 1021.8
20260905234015 51 239 3.5 9.6 0.00 0.01 0.00 86 1021.9
20260905233514 50 224 4.3 10.4 0.00 0.01 0.00 86 1021.9
20260905233009 50 220 7.0 10.4 0.00 0.01 0.00 86 1021.9
20260905232510 50 218 5.2 9.6 0.00 0.01 0.00 86 1021.9
20260905232008 50 221 3.5 9.6 0.00 0.01 0.00 86 1021.9
20260905231537 50 249 6.1 9.6 0.00 0.01 0.00 86 1021.7
20260905231012 50 226 5.2 7.8 0.00 0.01 0.00 86 1021.7
20260905230507 50 232 3.5 7.8 0.00 0.01 0.00 86 1021.7
20260905230022 49 216 5.2 7.8 0.00 0.01 0.00 86 1021.6
20260905225514 49 224 3.5 8.7 0.00 0.01 0.00 86 1021.5
20260905225011 49 194 4.3 8.7 0.00 0.01 0.00 86 1021.4
20260905224600 49 212 3.5 8.7 0.00 0.02 0.00 86 1021.3
20260905224010 49 223 4.3 7.8 0.00 0.02 0.00 86 1021.2
20260905223518 49 204 4.3 7.0 0.00 0.02 0.00 86 1021.1
20260905223027 49 233 4.3 7.8 0.00 0.02 0.00 86 1021.0
20260905222509 49 225 5.2 7.8 0.00 0.02 0.00 86 1020.8
20260905222016 49 223 3.5 8.7 0.00 0.02 0.00 86 1020.8
20260905221528 49 207 4.3 8.7 0.00 0.02 0.00 86 1020.8
20260905221019 49 220 4.3 8.7 0.00 0.02 0.00 86 1020.8
20260905220510 48 195 3.5 7.8 0.00 0.02 0.00 86 1020.7
20260905220018 48 233 3.5 7.0 0.00 0.02 0.00 86 1020.7
20260905215517 48 228 3.5 7.8 0.00 0.02 0.00 86 1020.7
20260905215016 48 228 3.5 8.7 0.00 0.02 0.00 86 1020.4
20260905214515 48 224 6.1 10.4 0.00 0.02 0.00 86 1020.3
20260905214015 48 222 5.2 10.4 0.00 0.02 0.00 86 1020.3
20260905213514 48 236 5.2 11.3 0.00 0.02 0.00 86 1020.3
20260905213032 48 249 5.2 11.3 0.00 0.03 0.00 85 1020.2
20260905212517 48 208 5.2 13.0 0.00 0.03 0.00 85 1020.1
20260905212014 48 241 7.0 13.0 0.00 0.03 0.00 85 1020.1
20260905211542 48 234 6.1 13.9 0.00 0.03 0.00 85 1020.0
20260905211013 48 224 8.7 13.9 0.00 0.03 0.00 85 1019.9
20260905210511 48 226 7.0 13.0 0.00 0.03 0.00 86 1019.6
20260905210042 48 216 6.1 11.3 0.00 0.03 0.00 86 1019.5
20260905205516 48 239 4.3 8.7 0.00 0.03 0.00 86 1019.3
20260905205019 48 202 3.5 8.7 0.00 0.03 0.00 86 1019.2
20260905204518 48 220 4.3 8.7 0.00 0.03 0.00 86 1019.1
20260905204015 48 206 5.2 8.7 0.00 0.03 0.00 86 1019.1
20260905203514 48 195 5.2 10.4 0.00 0.03 0.00 86 1018.9
20260905203027 48 218 7.0 10.4 0.00 0.03 0.00 86 1018.7
20260905202520 48 209 6.1 8.7 0.00 0.03 0.00 85 1018.7
20260905202004 48 200 6.1 8.7 0.00 0.03 0.00 85 1018.6
20260905201507 48 196 4.3 7.8 0.00 0.03 0.00 85 1018.6
20260905201006 48 189 6.1 9.6 0.00 0.03 0.00 85 1018.5
20260905200509 48 189 4.3 9.6 0.00 0.03 0.00 85 1018.4
20260905200018 48 199 7.0 11.3 0.00 0.03 0.00 84 1018.4
20260905195506 48 211 6.1 12.2 0.00 0.03 0.00 84 1018.4
20260905195006 48 217 6.1 12.2 0.00 0.03 0.00 84 1018.4
20260905194509 48 209 3.5 11.3 0.00 0.03 0.00 84 1018.4
20260905194008 48 204 6.1 11.3 0.00 0.03 0.00 84 1018.4
20260905193507 48 228 7.0 11.3 0.00 0.03 0.00 84 1018.3
20260905193010 48 211 6.1 10.4 0.00 0.03 0.00 83 1018.2
20260905192508 49 221 6.1 10.4 0.00 0.03 0.00 83 1018.2
20260905192009 49 238 7.0 13.0 0.00 0.03 0.00 83 1018.2
20260905191508 49 229 4.3 13.0 0.00 0.04 0.00 83 1018.2
20260905191004 49 251 7.0 13.0 0.00 0.04 0.00 83 1018.1
20260905190503 49 214 7.0 13.0 0.00 0.04 0.00 83 1018.0
20260905190008 49 217 7.8 12.2 0.00 0.04 0.00 83 1017.9
20260905185507 49 223 7.8 12.2 0.00 0.04 0.00 83 1017.9
20260905185005 49 214 5.2 13.0 0.00 0.04 0.00 82 1017.8
20260905184519 49 206 7.8 13.0 0.00 0.04 0.00 82 1017.7
20260905184009 49 235 7.0 13.0 0.00 0.04 0.00 81 1017.7
20260905183508 49 208 7.8 15.6 0.00 0.04 0.00 81 1017.5
20260905183012 49 256 8.7 15.6 0.00 0.04 0.00 80 1017.5
20260905182508 49 243 8.7 13.9 0.00 0.04 0.00 80 1017.4
20260905182008 49 234 9.6 13.9 0.00 0.04 0.00 80 1017.4
20260905181511 49 243 5.2 13.0 0.00 0.04 0.00 80 1017.3
20260905181008 49 247 5.2 13.0 0.00 0.05 0.00 80 1017.4
20260905180505 49 232 7.8 12.2 0.00 0.05 0.00 80 1017.3
20260905180013 49 229 7.0 12.2 0.00 0.05 0.00 80 1017.1
20260905175508 49 256 7.0 13.0 0.00 0.05 0.00 80 1017.1
20260905175004 49 212 7.0 13.0 0.00 0.05 0.00 80 1017.1
20260905174510 49 249 7.8 12.2 0.00 0.05 0.00 81 1017.0
20260905174007 49 204 4.3 12.2 0.00 0.05 0.00 81 1016.8
20260905173508 49 213 5.2 12.2 0.00 0.05 0.00 81 1016.7
20260905173014 49 250 7.0 11.3 0.00 0.05 0.00 81 1016.7
20260905172511 49 245 5.2 11.3 0.00 0.05 0.00 81 1016.5
20260905172014 49 220 6.1 12.2 0.00 0.05 0.00 81 1016.4
20260905171516 49 241 8.7 12.2 0.00 0.06 0.00 81 1016.4
20260905171010 49 237 7.8 14.8 0.00 0.06 0.00 81 1016.2
20260905170508 49 231 7.8 14.8 0.00 0.06 0.00 81 1016.2
20260905170011 49 271 7.0 13.0 0.00 0.06 0.00 81 1016.1
20260905165511 49 240 7.8 13.9 0.00 0.06 0.00 82 1016.1
20260905165010 49 233 7.8 13.0 0.00 0.06 0.00 82 1015.9
20260905164526 49 239 6.1 13.0 0.00 0.06 0.00 82 1016.0
20260905164012 49 230 6.1 13.0 0.00 0.06 0.00 82 1015.9
20260905163510 49 259 6.1 13.9 0.00 0.06 0.00 82 1015.9
20260905163011 49 259 6.1 13.9 0.00 0.07 0.00 82 1015.8
20260905162507 49 237 7.0 13.0 0.00 0.07 0.00 82 1015.8
20260905162008 50 257 6.1 12.2 0.00 0.07 0.00 82 1015.8
20260905161518 50 241 7.0 14.8 0.00 0.07 0.00 82 1015.8
20260905161010 50 241 8.7 14.8 0.00 0.07 0.00 82 1015.7
20260905160511 50 251 7.0 13.0 0.00 0.07 0.00 82 1015.7
20260905160020 50 243 7.8 11.3 0.00 0.07 0.00 82 1015.6
20260905155515 50 218 4.3 10.4 0.00 0.07 0.00 82 1015.6
20260905155013 50 262 6.1 11.3 0.00 0.07 0.00 82 1015.5
20260905154527 50 289 6.1 11.3 0.00 0.07 0.00 82 1015.4
20260905154016 49 259 7.8 11.3 0.00 0.07 0.00 83 1015.2
20260905153516 49 254 5.2 10.4 0.00 0.07 0.00 83 1015.2
20260905153023 49 230 5.2 10.4 0.00 0.07 0.00 83 1015.2
20260905152515 49 237 6.1 12.2 0.00 0.07 0.00 83 1015.1
20260905152014 49 232 7.0 12.2 0.00 0.07 0.00 83 1015.0
20260905151519 49 256 6.1 10.4 0.00 0.07 0.00 83 1015.0
20260905151013 49 242 6.1 12.2 0.00 0.07 0.00 83 1014.9
20260905150514 49 273 7.0 13.9 0.00 0.07 0.00 83 1014.9
20260905150020 49 249 9.6 13.9 0.00 0.07 0.00 83 1014.9
20260905145514 49 273 7.0 13.0 0.00 0.07 0.00 83 1014.7
20260905145012 49 239 7.8 13.9 0.00 0.07 0.00 82 1014.6
20260905144526 50 240 8.7 14.8 0.00 0.07 0.00 81 1014.4
20260905144014 50 243 9.6 17.4 0.00 0.07 0.00 81 1014.3
20260905143511 50 241 9.6 17.4 0.00 0.07 0.00 80 1014.3
20260905143027 50 241 12.2 17.4 0.00 0.07 0.00 79 1014.1
20260905142513 50 255 11.3 17.4 0.00 0.07 0.00 80 1014.0
20260905142005 50 270 6.1 13.9 0.00 0.07 0.00 80 1013.9
20260905141507 50 255 8.7 13.9 0.00 0.07 0.00 80 1013.9
20260905141007 50 254 5.2 12.2 0.00 0.07 0.00 80 1013.8
20260905140511 50 241 7.0 12.2 0.00 0.07 0.00 79 1013.7
20260905140005 49 266 7.0 12.2 0.00 0.07 0.00 80 1013.7
20260905135510 49 260 8.7 12.2 0.00 0.07 0.07 80 1013.6
20260905135006 49 256 6.1 10.4 0.00 0.07 0.07 80 1013.4
20260905134521 49 257 7.0 10.4 0.00 0.07 0.07 80 1013.3
20260905134010 49 262 4.3 10.4 0.00 0.07 0.07 79 1013.2
20260905133504 49 256 6.1 10.4 0.00 0.07 0.07 79 1013.1
20260905133006 49 294 6.1 15.6 0.00 0.07 0.07 79 1013.1
20260905132505 49 287 7.8 15.6 0.00 0.07 0.07 78 1013.1
20260905132005 49 273 8.7 12.2 0.00 0.07 0.07 78 1013.0
20260905131508 49 278 6.1 8.7 0.00 0.07 0.07 78 1012.9
20260905131010 49 269 4.3 9.6 0.00 0.07 0.07 77 1012.9
20260905130508 49 273 5.2 9.6 0.00 0.07 0.07 77 1012.8
20260905130014 49 262 6.1 13.0 0.00 0.07 0.07 78 1012.7
20260905125504 49 268 7.0 13.0 0.00 0.07 0.07 77 1012.7
20260905125009 49 277 9.6 13.0 0.00 0.07 0.07 76 1012.7
20260905124512 49 274 7.8 13.0 0.00 0.07 0.07 75 1012.6
20260905124004 50 314 7.0 12.2 0.00 0.07 0.07 74 1012.5
20260905123512 50 247 6.1 9.6 0.00 0.07 0.07 73 1012.4
20260905123008 50 308 4.3 9.6 0.00 0.07 0.07 73 1012.4
20260905122514 50 312 5.2 9.6 0.00 0.07 0.07 72 1012.3
20260905122005 50 306 4.3 9.6 0.00 0.07 0.07 73 1012.3
20260905121507 50 285 5.2 9.6 0.00 0.07 0.07 73 1012.2
20260905121007 50 303 4.3 9.6 0.00 0.07 0.07 73 1012.2
20260905120508 50 289 7.0 13.0 0.00 0.07 0.07 73 1012.1
20260905120010 50 295 7.0 13.0 0.00 0.07 0.07 72 1012.0
20260905115509 50 278 7.0 10.4 0.00 0.07 0.07 72 1012.0
20260905115011 50 299 6.1 10.4 0.00 0.07 0.07 73 1012.1
20260905114514 50 285 7.0 11.3 0.00 0.07 0.07 72 1012.0
20260905114011 50 303 7.0 11.3 0.00 0.07 0.07 72 1011.8
20260905113507 50 286 8.7 11.3 0.00 0.07 0.07 72 1011.8
20260905113018 50 297 7.0 13.0 0.00 0.07 0.07 72 1011.6
20260905112510 50 302 6.1 13.0 0.00 0.07 0.07 72 1011.5
20260905112002 50 309 7.0 10.4 0.00 0.07 0.07 73 1011.3
20260905111505 50 305 6.1 12.2 0.00 0.07 0.07 73 1011.2
20260905111005 50 312 7.0 12.2 0.00 0.07 0.07 72 1011.2
20260905110504 50 302 7.8 12.2 0.00 0.07 0.07 72 1011.1
20260905110002 50 310 7.0 10.4 0.00 0.07 0.07 72 1010.9
20260905105508 50 314 7.0 10.4 0.00 0.07 0.07 72 1010.9
20260905105004 50 333 7.0 11.3 0.00 0.07 0.07 71 1010.7
20260905104501 50 314 7.0 11.3 0.00 0.07 0.07 71 1010.7
20260905104004 50 316 7.0 11.3 0.00 0.07 0.07 71 1010.7
20260905103505 50 341 7.0 15.6 0.00 0.07 0.07 71 1010.7
20260905103015 50 324 7.0 15.6 0.00 0.07 0.07 71 1010.7
20260905102505 50 339 7.8 13.9 0.00 0.07 0.07 71 1010.6
20260905102003 50 299 9.6 13.9 0.00 0.07 0.07 71 1010.6
20260905101505 50 314 8.7 13.0 0.00 0.07 0.07 72 1010.4
20260905101003 50 306 6.1 13.0 0.00 0.07 0.07 72 1010.3
20260905100510 50 320 7.0 13.0 0.00 0.07 0.07 72 1010.1
20260905100006 50 305 8.7 12.2 0.00 0.07 0.07 72 1009.9
20260905095504 51 308 6.1 15.6 0.00 0.07 0.07 72 1009.9
20260905095006 50 296 9.6 15.6 0.00 0.07 0.07 73 1010.1
20260905094508 50 293 7.8 13.0 0.00 0.07 0.07 76 1009.8
20260905094003 49 336 6.1 12.2 0.00 0.07 0.07 77 1009.7
20260905093508 49 335 7.8 12.2 0.00 0.07 0.07 77 1009.5
20260905093005 49 318 6.1 12.2 0.00 0.07 0.07 78 1009.4
20260905092504 49 11 7.0 12.2 0.00 0.07 0.07 78 1009.3
20260905092004 50 333 7.8 13.0 0.00 0.07 0.07 78 1009.0
20260905091505 49 338 7.0 13.0 0.00 0.07 0.07 78 1009.0
20260905091006 49 339 5.2 9.6 0.00 0.07 0.07 78 1008.9
20260905090503 49 21 4.3 8.7 0.00 0.07 0.07 79 1008.8
20260905090005 49 5 3.5 8.7 0.00 0.07 0.07 79 1008.7
20260905085505 49 16 5.2 9.6 0.00 0.07 0.07 78 1008.7
20260905085002 49 4 5.2 9.6 0.00 0.07 0.07 79 1008.7
20260905084508 49 339 5.2 10.4 0.00 0.07 0.07 79 1008.4
20260905084006 49 345 7.0 14.8 0.00 0.07 0.07 78 1008.2
20260905083502 49 328 7.8 16.5 0.00 0.07 0.07 78 1007.9
20260905083011 49 343 9.6 16.5 0.00 0.07 0.07 78 1007.8
20260905082511 49 344 10.4 14.8 0.00 0.07 0.07 78 1007.8
20260905082010 49 335 9.6 13.9 0.00 0.07 0.07 78 1007.9
20260905081510 49 333 8.7 12.2 0.00 0.07 0.07 78 1007.9
20260905081007 50 352 8.7 12.2 0.00 0.07 0.07 77 1007.9
20260905080504 50 333 7.0 13.9 0.00 0.07 0.07 76 1007.8
20260905080004 50 324 7.8 13.9 0.00 0.07 0.07 76 1007.9
20260905075504 50 326 8.7 13.0 0.00 0.07 0.07 75 1007.8
20260905075005 51 332 7.8 15.6 0.00 0.07 0.07 74 1007.8
20260905074506 51 306 9.6 20.0 0.00 0.07 0.07 73 1007.8
20260905074007 50 289 11.3 20.0 0.00 0.07 0.07 73 1007.8
20260905073507 50 312 11.3 18.2 0.00 0.07 0.07 74 1007.8
20260905073008 51 319 10.4 21.7 0.00 0.07 0.07 71 1007.8
20260905072508 53 304 14.8 20.9 0.00 0.07 0.07 68 1007.7
20260905072004 53 304 12.2 16.5 0.00 0.07 0.07 72 1007.5
20260905071505 53 279 9.6 18.2 0.00 0.07 0.07 72 1007.1
20260905071010 53 308 12.2 18.2 0.00 0.07 0.07 70 1007.3
20260905070503 54 308 10.4 19.1 0.00 0.07 0.07 69 1007.0
20260905070020 55 308 12.2 21.7 0.00 0.07 0.07 67 1007.1
20260905065509 56 299 13.9 21.7 0.00 0.07 0.07 65 1006.8
20260905065006 56 310 10.4 18.2 0.00 0.07 0.07 66 1006.7
20260905064508 57 321 10.4 20.0 0.00 0.07 0.07 66 1006.6
20260905064004 57 313 12.2 22.6 0.00 0.07 0.07 64 1006.5
20260905063504 58 308 13.9 22.6 0.00 0.07 0.07 63 1006.4
20260905063007 58 311 13.0 20.9 0.00 0.07 0.07 63 1006.3
20260905062508 57 305 8.7 19.1 0.00 0.07 0.07 65 1006.3